| time (UTC) | temp F | wind direction | speed MPH | gust MPH | rain 1hr in | rain 24hr in | rain mn in | humidity % | barometer mb |
| 20260906231508 | 80 | 262 | 2.0 | 6.0 | 0.01 | 0.52 | 0.52 | 75 | 1015.6 |
| 20260906231004 | 80 | 332 | 2.0 | 6.0 | 0.01 | 0.52 | 0.52 | 77 | 1015.7 |
| 20260906230504 | 80 | 19 | 4.0 | 5.0 | 0.01 | 0.52 | 0.52 | 78 | 1015.8 |
| 20260906230016 | 80 | 24 | 2.0 | 3.0 | 0.00 | 0.52 | 0.52 | 81 | 1015.8 |
| 20260906225505 | 79 | 5 | 1.0 | 3.0 | 0.00 | 0.52 | 0.52 | 80 | 1015.8 |
| 20260906225007 | 79 | 277 | 0.0 | 3.0 | 0.00 | 0.52 | 0.52 | 83 | 1016.0 |
| 20260906224520 | 79 | 270 | 1.0 | 3.0 | 0.00 | 0.52 | 0.52 | 84 | 1016.1 |
| 20260906224010 | 79 | 128 | 2.0 | 3.0 | 0.00 | 0.52 | 0.52 | 85 | 1016.3 |
| 20260906223508 | 78 | 273 | 1.0 | 2.0 | 0.00 | 0.52 | 0.52 | 84 | 1016.2 |
| 20260906223025 | 78 | 122 | 0.0 | 2.0 | 0.00 | 0.52 | 0.52 | 83 | 1016.3 |
| 20260906222510 | 78 | 122 | 0.0 | 2.0 | 0.00 | 0.52 | 0.52 | 84 | 1016.4 |
| 20260906222010 | 78 | 28 | 0.0 | 2.0 | 0.00 | 0.52 | 0.52 | 84 | 1016.5 |
| 20260906221522 | 77 | 284 | 0.0 | 6.0 | 0.00 | 0.52 | 0.52 | 79 | 1016.5 |
| 20260906221012 | 77 | 140 | 2.0 | 6.0 | 0.00 | 0.52 | 0.52 | 80 | 1016.7 |
| 20260906220512 | 78 | 109 | 1.0 | 5.0 | 0.00 | 0.52 | 0.52 | 82 | 1016.7 |
| 20260906220020 | 77 | 332 | 0.0 | 8.0 | 0.00 | 0.52 | 0.52 | 79 | 1016.6 |
| 20260906215507 | 77 | 342 | 3.0 | 8.0 | 0.00 | 0.52 | 0.52 | 79 | 1016.7 |
| 20260906215008 | 77 | 315 | 4.0 | 6.0 | 0.00 | 0.52 | 0.52 | 81 | 1016.7 |
| 20260906214518 | 76 | 346 | 3.0 | 6.0 | 0.13 | 0.52 | 0.52 | 81 | 1016.4 |
| 20260906214010 | 76 | 273 | 3.0 | 6.0 | 0.18 | 0.52 | 0.52 | 81 | 1016.2 |
| 20260906213024 | 76 | 225 | 3.0 | 5.0 | 0.26 | 0.52 | 0.52 | 81 | 1015.9 |
| 20260906212510 | 76 | 232 | 2.0 | 5.0 | 0.27 | 0.52 | 0.52 | 82 | 1015.8 |
| 20260906212013 | 76 | 230 | 3.0 | 4.0 | 0.28 | 0.52 | 0.52 | 84 | 1016.1 |
| 20260906211538 | 75 | 251 | 2.0 | 4.0 | 0.47 | 0.52 | 0.52 | 83 | 1016.1 |
| 20260906211014 | 75 | 223 | 2.0 | 4.0 | 0.52 | 0.55 | 0.52 | 81 | 1016.1 |
| 20260906210512 | 75 | 228 | 2.0 | 5.0 | 0.52 | 0.60 | 0.52 | 80 | 1015.8 |
| 20260906210045 | 75 | 231 | 3.0 | 11.0 | 0.52 | 0.70 | 0.52 | 80 | 1015.8 |
| 20260906205510 | 75 | 196 | 3.0 | 18.0 | 0.52 | 0.72 | 0.52 | 79 | 1015.9 |
| 20260906205011 | 74 | 245 | 9.0 | 17.0 | 0.52 | 0.72 | 0.52 | 79 | 1016.1 |
| 20260906204514 | 75 | 184 | 6.0 | 9.0 | 0.39 | 0.58 | 0.39 | 79 | 1016.4 |
| 20260906204008 | 75 | 171 | 5.0 | 8.0 | 0.34 | 0.54 | 0.34 | 77 | 1016.3 |
| 20260906203515 | 76 | 207 | 5.0 | 10.0 | 0.29 | 0.49 | 0.29 | 77 | 1016.3 |
| 20260906203029 | 77 | 220 | 4.0 | 13.0 | 0.26 | 0.46 | 0.26 | 75 | 1016.1 |
| 20260906202512 | 78 | 220 | 4.0 | 23.0 | 0.25 | 0.45 | 0.25 | 70 | 1016.0 |
| 20260906201513 | 87 | 254 | 12.0 | 23.0 | 0.05 | 0.25 | 0.05 | 51 | 1015.9 |
| 20260906201003 | 90 | 226 | 7.0 | 18.0 | 0.00 | 0.20 | 0.00 | 47 | 1015.8 |
| 20260906200505 | 92 | 242 | 9.0 | 18.0 | 0.00 | 0.20 | 0.00 | 43 | 1015.9 |
| 20260906200009 | 93 | 262 | 5.0 | 7.0 | 0.00 | 0.20 | 0.00 | 42 | 1016.0 |
| 20260906195503 | 94 | 320 | 1.0 | 4.0 | 0.00 | 0.20 | 0.00 | 40 | 1016.0 |
| 20260906195003 | 94 | 333 | 2.0 | 8.0 | 0.00 | 0.20 | 0.00 | 39 | 1016.1 |
| 20260906194513 | 94 | 321 | 2.0 | 9.0 | 0.00 | 0.20 | 0.00 | 40 | 1016.1 |
| 20260906194005 | 95 | 344 | 5.0 | 9.0 | 0.00 | 0.20 | 0.00 | 41 | 1016.1 |
| 20260906193506 | 96 | 37 | 3.0 | 9.0 | 0.00 | 0.20 | 0.00 | 40 | 1016.2 |
| 20260906193030 | 95 | 110 | 1.0 | 6.0 | 0.00 | 0.20 | 0.00 | 41 | 1016.2 |
| 20260906192502 | 95 | 90 | 4.0 | 6.0 | 0.00 | 0.20 | 0.00 | 41 | 1016.2 |
| 20260906192002 | 95 | 5 | 2.0 | 7.0 | 0.00 | 0.20 | 0.00 | 40 | 1016.4 |
| 20260906191505 | 96 | 120 | 3.0 | 9.0 | 0.00 | 0.20 | 0.00 | 40 | 1016.4 |
| 20260906191003 | 96 | 110 | 3.0 | 9.0 | 0.00 | 0.20 | 0.00 | 39 | 1016.4 |
| 20260906190504 | 96 | 228 | 3.0 | 7.0 | 0.00 | 0.20 | 0.00 | 41 | 1016.4 |
| 20260906190008 | 95 | 63 | 5.0 | 7.0 | 0.00 | 0.20 | 0.00 | 39 | 1016.5 |
| 20260906185504 | 96 | 271 | 3.0 | 8.0 | 0.00 | 0.20 | 0.00 | 41 | 1016.5 |
| 20260906185007 | 96 | 258 | 2.0 | 8.0 | 0.00 | 0.20 | 0.00 | 40 | 1016.4 |
| 20260906184533 | 96 | 174 | 4.0 | 7.0 | 0.00 | 0.20 | 0.00 | 41 | 1016.5 |
| 20260906184004 | 95 | 178 | 4.0 | 7.0 | 0.00 | 0.20 | 0.00 | 41 | 1016.8 |
| 20260906183508 | 94 | 234 | 3.0 | 10.0 | 0.00 | 0.20 | 0.00 | 45 | 1016.9 |
| 20260906183035 | 93 | 229 | 5.0 | 10.0 | 0.00 | 0.20 | 0.00 | 45 | 1017.1 |
| 20260906182509 | 92 | 233 | 4.0 | 5.0 | 0.00 | 0.20 | 0.00 | 45 | 1017.2 |
| 20260906182016 | 91 | 205 | 1.0 | 4.0 | 0.00 | 0.20 | 0.00 | 48 | 1017.3 |
| 20260906181523 | 89 | 214 | 1.0 | 3.0 | 0.00 | 0.20 | 0.00 | 50 | 1017.2 |
| 20260906181013 | 89 | 159 | 1.0 | 3.0 | 0.00 | 0.20 | 0.00 | 50 | 1017.2 |
| 20260906180516 | 88 | 246 | 2.0 | 3.0 | 0.00 | 0.20 | 0.00 | 53 | 1017.3 |
| 20260906180005 | 88 | 160 | 0.0 | 4.0 | 0.00 | 0.20 | 0.00 | 52 | 1017.3 |
| 20260906175512 | 88 | 57 | 2.0 | 6.0 | 0.00 | 0.20 | 0.00 | 51 | 1017.4 |
| 20260906175004 | 89 | 66 | 2.0 | 6.0 | 0.00 | 0.20 | 0.00 | 49 | 1017.8 |
| 20260906174510 | 90 | 53 | 1.0 | 11.0 | 0.00 | 0.20 | 0.00 | 47 | 1017.8 |
| 20260906174007 | 90 | 145 | 6.0 | 11.0 | 0.00 | 0.20 | 0.00 | 43 | 1018.0 |
| 20260906173515 | 91 | 60 | 3.0 | 7.0 | 0.00 | 0.20 | 0.00 | 40 | 1017.9 |
| 20260906173015 | 91 | 91 | 3.0 | 7.0 | 0.00 | 0.20 | 0.00 | 40 | 1017.9 |
| 20260906172507 | 89 | 74 | 2.0 | 8.0 | 0.00 | 0.20 | 0.00 | 43 | 1017.9 |
| 20260906172009 | 88 | 47 | 3.0 | 9.0 | 0.00 | 0.20 | 0.00 | 43 | 1017.9 |
| 20260906171518 | 88 | 37 | 3.0 | 13.0 | 0.00 | 0.20 | 0.00 | 44 | 1018.1 |
| 20260906171011 | 90 | 134 | 8.0 | 13.0 | 0.00 | 0.20 | 0.00 | 48 | 1018.1 |
| 20260906170512 | 91 | 286 | 3.0 | 11.0 | 0.00 | 0.20 | 0.00 | 48 | 1018.3 |
| 20260906170031 | 92 | 184 | 2.0 | 11.0 | 0.00 | 0.20 | 0.00 | 49 | 1018.4 |
| 20260906165503 | 92 | 49 | 2.0 | 6.0 | 0.00 | 0.20 | 0.00 | 46 | 1018.4 |
| 20260906165015 | 91 | 42 | 2.0 | 8.0 | 0.00 | 0.20 | 0.00 | 46 | 1018.4 |
| 20260906164532 | 91 | 352 | 4.0 | 8.0 | 0.00 | 0.20 | 0.00 | 45 | 1018.5 |
| 20260906164004 | 91 | 5 | 3.0 | 7.0 | 0.00 | 0.20 | 0.00 | 46 | 1018.4 |
| 20260906163504 | 92 | 27 | 3.0 | 8.0 | 0.00 | 0.20 | 0.00 | 45 | 1018.3 |
| 20260906163010 | 92 | 44 | 3.0 | 9.0 | 0.00 | 0.20 | 0.00 | 44 | 1018.4 |
| 20260906162504 | 92 | 288 | 4.0 | 9.0 | 0.00 | 0.20 | 0.00 | 47 | 1018.5 |
| 20260906162009 | 92 | 9 | 4.0 | 8.0 | 0.00 | 0.20 | 0.00 | 45 | 1018.3 |
| 20260906161518 | 92 | 297 | 4.0 | 7.0 | 0.00 | 0.20 | 0.00 | 45 | 1018.5 |
| 20260906161011 | 92 | 265 | 2.0 | 8.0 | 0.00 | 0.20 | 0.00 | 45 | 1018.7 |
| 20260906160512 | 92 | 294 | 4.0 | 10.0 | 0.00 | 0.20 | 0.00 | 44 | 1018.7 |
| 20260906160035 | 92 | 352 | 6.0 | 10.0 | 0.00 | 0.20 | 0.00 | 46 | 1018.6 |
| 20260906155510 | 91 | 337 | 5.0 | 9.0 | 0.00 | 0.20 | 0.00 | 48 | 1018.6 |
| 20260906155015 | 91 | 250 | 2.0 | 7.0 | 0.00 | 0.20 | 0.00 | 48 | 1018.5 |
| 20260906154510 | 91 | 334 | 3.0 | 7.0 | 0.00 | 0.20 | 0.00 | 49 | 1018.5 |
| 20260906154003 | 90 | 269 | 3.0 | 7.0 | 0.00 | 0.20 | 0.00 | 49 | 1018.4 |
| 20260906153503 | 90 | 267 | 4.0 | 7.0 | 0.00 | 0.20 | 0.00 | 49 | 1018.4 |
| 20260906153014 | 90 | 284 | 1.0 | 7.0 | 0.00 | 0.20 | 0.00 | 50 | 1018.5 |
| 20260906152504 | 90 | 290 | 3.0 | 7.0 | 0.00 | 0.20 | 0.00 | 50 | 1018.3 |
| 20260906152003 | 90 | 275 | 3.0 | 7.0 | 0.00 | 0.20 | 0.00 | 50 | 1018.5 |
| 20260906151513 | 90 | 259 | 2.0 | 6.0 | 0.00 | 0.20 | 0.00 | 50 | 1018.5 |
| 20260906151007 | 89 | 306 | 4.0 | 7.0 | 0.00 | 0.20 | 0.00 | 49 | 1018.5 |
| 20260906150518 | 89 | 271 | 2.0 | 7.0 | 0.00 | 0.20 | 0.00 | 51 | 1018.5 |
| 20260906150024 | 89 | 273 | 3.0 | 6.0 | 0.00 | 0.20 | 0.00 | 51 | 1018.5 |
| 20260906145512 | 88 | 310 | 3.0 | 6.0 | 0.00 | 0.20 | 0.00 | 51 | 1018.4 |
| 20260906145016 | 88 | 279 | 3.0 | 6.0 | 0.00 | 0.20 | 0.00 | 52 | 1018.4 |
| 20260906144530 | 88 | 263 | 3.0 | 6.0 | 0.00 | 0.20 | 0.00 | 52 | 1018.4 |
| 20260906144015 | 88 | 274 | 3.0 | 6.0 | 0.00 | 0.20 | 0.00 | 52 | 1018.4 |
| 20260906143512 | 87 | 294 | 3.0 | 6.0 | 0.00 | 0.20 | 0.00 | 53 | 1018.3 |
| 20260906143038 | 87 | 326 | 3.0 | 7.0 | 0.00 | 0.20 | 0.00 | 54 | 1018.2 |
| 20260906142516 | 87 | 303 | 4.0 | 7.0 | 0.00 | 0.20 | 0.00 | 53 | 1018.2 |
| 20260906142004 | 87 | 229 | 2.0 | 6.0 | 0.00 | 0.20 | 0.00 | 56 | 1018.2 |
| 20260906141530 | 86 | 273 | 2.0 | 7.0 | 0.00 | 0.20 | 0.00 | 56 | 1018.2 |
| 20260906141007 | 86 | 288 | 1.0 | 7.0 | 0.00 | 0.20 | 0.00 | 56 | 1018.3 |
| 20260906140508 | 86 | 283 | 3.0 | 7.0 | 0.00 | 0.20 | 0.00 | 56 | 1018.1 |
| 20260906140024 | 85 | 287 | 4.0 | 7.0 | 0.00 | 0.20 | 0.00 | 55 | 1018.5 |
| 20260906135516 | 85 | 229 | 2.0 | 10.0 | 0.00 | 0.20 | 0.00 | 58 | 1018.5 |
| 20260906135011 | 85 | 265 | 3.0 | 10.0 | 0.00 | 0.20 | 0.00 | 57 | 1018.5 |
| 20260906134526 | 84 | 252 | 4.0 | 9.0 | 0.00 | 0.20 | 0.00 | 58 | 1018.5 |
| 20260906134012 | 84 | 257 | 2.0 | 6.0 | 0.00 | 0.20 | 0.00 | 59 | 1018.5 |
| 20260906133513 | 84 | 227 | 2.0 | 5.0 | 0.00 | 0.20 | 0.00 | 61 | 1018.4 |
| 20260906133042 | 83 | 269 | 2.0 | 5.0 | 0.00 | 0.20 | 0.00 | 61 | 1018.4 |
| 20260906132517 | 83 | 222 | 1.0 | 4.0 | 0.00 | 0.20 | 0.00 | 61 | 1018.3 |
| 20260906132018 | 83 | 226 | 2.0 | 6.0 | 0.00 | 0.20 | 0.00 | 62 | 1018.3 |
| 20260906131518 | 82 | 239 | 3.0 | 6.0 | 0.00 | 0.20 | 0.00 | 63 | 1018.3 |
| 20260906131018 | 82 | 260 | 1.0 | 4.0 | 0.00 | 0.20 | 0.00 | 61 | 1018.2 |
| 20260906130508 | 82 | 238 | 1.0 | 4.0 | 0.00 | 0.20 | 0.00 | 64 | 1018.2 |
| 20260906130034 | 81 | 268 | 2.0 | 4.0 | 0.00 | 0.20 | 0.00 | 63 | 1018.1 |
| 20260906125508 | 81 | 250 | 2.0 | 4.0 | 0.00 | 0.20 | 0.00 | 63 | 1018.1 |
| 20260906125008 | 80 | 265 | 2.0 | 3.0 | 0.00 | 0.20 | 0.00 | 64 | 1018.0 |
| 20260906124523 | 80 | 275 | 1.0 | 4.0 | 0.00 | 0.20 | 0.00 | 65 | 1018.0 |
| 20260906124012 | 79 | 271 | 1.0 | 4.0 | 0.00 | 0.20 | 0.00 | 65 | 1017.9 |
| 20260906123513 | 79 | 276 | 1.0 | 4.0 | 0.00 | 0.20 | 0.00 | 66 | 1017.9 |
| 20260906123047 | 78 | 277 | 1.0 | 4.0 | 0.00 | 0.20 | 0.00 | 67 | 1017.8 |
| 20260906122511 | 77 | 256 | 1.0 | 3.0 | 0.00 | 0.20 | 0.00 | 69 | 1017.8 |
| 20260906122014 | 77 | 273 | 1.0 | 2.0 | 0.00 | 0.20 | 0.00 | 70 | 1017.7 |
| 20260906121529 | 76 | 262 | 1.0 | 2.0 | 0.00 | 0.20 | 0.00 | 70 | 1017.7 |
| 20260906121018 | 76 | 255 | 1.0 | 2.0 | 0.00 | 0.20 | 0.00 | 71 | 1017.6 |
| 20260906120506 | 76 | 252 | 1.0 | 2.0 | 0.00 | 0.20 | 0.00 | 73 | 1017.6 |
| 20260906120011 | 76 | 244 | 0.0 | 2.0 | 0.00 | 0.20 | 0.00 | 71 | 1017.5 |
| 20260906115508 | 76 | 352 | 0.0 | 2.0 | 0.00 | 0.20 | 0.00 | 71 | 1017.4 |
| 20260906115008 | 75 | 252 | 1.0 | 1.0 | 0.00 | 0.20 | 0.00 | 71 | 1017.4 |
| 20260906114503 | 75 | 252 | 1.0 | 2.0 | 0.00 | 0.20 | 0.00 | 72 | 1017.5 |
| 20260906114009 | 74 | 234 | 1.0 | 2.0 | 0.00 | 0.20 | 0.00 | 73 | 1017.4 |
| 20260906113502 | 74 | 247 | 0.0 | 2.0 | 0.00 | 0.20 | 0.00 | 75 | 1017.4 |
| 20260906113004 | 74 | 216 | 1.0 | 1.0 | 0.00 | 0.20 | 0.00 | 75 | 1017.4 |
| 20260906112502 | 74 | 215 | 1.0 | 1.0 | 0.00 | 0.20 | 0.00 | 74 | 1017.3 |
| 20260906112006 | 74 | 215 | 1.0 | 2.0 | 0.00 | 0.20 | 0.00 | 74 | 1017.4 |
| 20260906111505 | 75 | 215 | 1.0 | 2.0 | 0.00 | 0.20 | 0.00 | 74 | 1017.3 |
| 20260906111003 | 75 | 237 | 1.0 | 2.0 | 0.00 | 0.20 | 0.00 | 73 | 1017.3 |
| 20260906110504 | 75 | 237 | 1.0 | 1.0 | 0.00 | 0.20 | 0.00 | 73 | 1017.3 |
| 20260906110010 | 76 | 237 | 1.0 | 1.0 | 0.00 | 0.20 | 0.00 | 72 | 1017.3 |
| 20260906105507 | 76 | 237 | 0.0 | 2.0 | 0.00 | 0.20 | 0.00 | 71 | 1017.3 |
| 20260906105008 | 76 | 237 | 0.0 | 2.0 | 0.00 | 0.20 | 0.00 | 71 | 1017.3 |
| 20260906104514 | 76 | 237 | 0.0 | 2.0 | 0.00 | 0.20 | 0.00 | 70 | 1017.4 |
| 20260906104010 | 76 | 237 | 0.0 | 2.0 | 0.00 | 0.20 | 0.00 | 70 | 1017.3 |
| 20260906103503 | 76 | 237 | 1.0 | 2.0 | 0.00 | 0.20 | 0.00 | 70 | 1017.3 |
| 20260906103003 | 76 | 237 | 1.0 | 2.0 | 0.00 | 0.20 | 0.00 | 70 | 1017.3 |
| 20260906102503 | 76 | 237 | 0.0 | 1.0 | 0.00 | 0.20 | 0.00 | 69 | 1017.2 |
| 20260906102002 | 76 | 237 | 1.0 | 2.0 | 0.00 | 0.20 | 0.00 | 70 | 1017.3 |
| 20260906101514 | 76 | 237 | 0.0 | 2.0 | 0.00 | 0.20 | 0.00 | 71 | 1017.2 |
| 20260906101003 | 76 | 237 | 1.0 | 2.0 | 0.00 | 0.20 | 0.00 | 70 | 1017.2 |
| 20260906100506 | 76 | 237 | 0.0 | 2.0 | 0.00 | 0.20 | 0.00 | 70 | 1017.2 |
| 20260906100007 | 76 | 252 | 0.0 | 2.0 | 0.00 | 0.20 | 0.00 | 70 | 1017.2 |
| 20260906095518 | 76 | 252 | 0.0 | 1.0 | 0.00 | 0.20 | 0.00 | 71 | 1017.1 |
| 20260906095007 | 76 | 252 | 1.0 | 2.0 | 0.00 | 0.20 | 0.00 | 72 | 1017.1 |
| 20260906094513 | 76 | 252 | 0.0 | 2.0 | 0.00 | 0.20 | 0.00 | 72 | 1017.0 |
| 20260906094006 | 76 | 231 | 1.0 | 5.0 | 0.00 | 0.20 | 0.00 | 73 | 1017.0 |
| 20260906093513 | 76 | 230 | 1.0 | 5.0 | 0.00 | 0.20 | 0.00 | 73 | 1016.9 |
| 20260906093039 | 76 | 251 | 1.0 | 4.0 | 0.00 | 0.20 | 0.00 | 72 | 1016.9 |
| 20260906092520 | 76 | 236 | 1.0 | 4.0 | 0.00 | 0.20 | 0.00 | 73 | 1016.8 |
| 20260906092004 | 76 | 248 | 2.0 | 4.0 | 0.00 | 0.20 | 0.00 | 74 | 1016.8 |
| 20260906091503 | 75 | 236 | 1.0 | 4.0 | 0.00 | 0.20 | 0.00 | 73 | 1016.8 |
| 20260906091003 | 74 | 254 | 1.0 | 3.0 | 0.00 | 0.20 | 0.00 | 75 | 1016.8 |
| 20260906090503 | 73 | 261 | 2.0 | 3.0 | 0.00 | 0.20 | 0.00 | 77 | 1016.8 |
| 20260906090020 | 73 | 261 | 1.0 | 3.0 | 0.00 | 0.20 | 0.00 | 79 | 1016.8 |
| 20260906085515 | 73 | 228 | 1.0 | 3.0 | 0.00 | 0.20 | 0.00 | 79 | 1016.7 |
| 20260906085005 | 73 | 236 | 1.0 | 3.0 | 0.00 | 0.20 | 0.00 | 80 | 1016.7 |
| 20260906084531 | 73 | 215 | 1.0 | 3.0 | 0.00 | 0.20 | 0.00 | 80 | 1016.7 |
| 20260906084003 | 73 | 217 | 2.0 | 3.0 | 0.00 | 0.20 | 0.00 | 79 | 1016.6 |
| 20260906083508 | 73 | 216 | 2.0 | 3.0 | 0.00 | 0.20 | 0.00 | 79 | 1016.6 |
| 20260906083018 | 73 | 218 | 2.0 | 3.0 | 0.00 | 0.20 | 0.00 | 79 | 1016.6 |
| 20260906082510 | 73 | 222 | 1.0 | 2.0 | 0.00 | 0.20 | 0.00 | 78 | 1016.6 |
| 20260906082014 | 73 | 222 | 1.0 | 2.0 | 0.00 | 0.20 | 0.00 | 78 | 1016.6 |
| 20260906081523 | 73 | 222 | 1.0 | 3.0 | 0.00 | 0.20 | 0.00 | 78 | 1016.5 |
| 20260906081013 | 73 | 221 | 2.0 | 3.0 | 0.00 | 0.20 | 0.00 | 77 | 1016.5 |
| 20260906080503 | 74 | 223 | 2.0 | 3.0 | 0.00 | 0.20 | 0.00 | 77 | 1016.5 |
| 20260906080028 | 74 | 223 | 2.0 | 3.0 | 0.00 | 0.20 | 0.00 | 77 | 1016.5 |
| 20260906075504 | 74 | 223 | 2.0 | 3.0 | 0.00 | 0.20 | 0.00 | 77 | 1016.5 |
| 20260906075008 | 74 | 225 | 2.0 | 3.0 | 0.00 | 0.20 | 0.00 | 77 | 1016.4 |
| 20260906074508 | 74 | 223 | 2.0 | 3.0 | 0.00 | 0.20 | 0.00 | 77 | 1016.3 |
| 20260906074005 | 74 | 225 | 2.0 | 3.0 | 0.00 | 0.20 | 0.00 | 76 | 1016.5 |
| 20260906073517 | 74 | 233 | 2.0 | 3.0 | 0.00 | 0.20 | 0.00 | 76 | 1016.7 |
| 20260906073017 | 74 | 225 | 2.0 | 3.0 | 0.00 | 0.20 | 0.00 | 76 | 1016.6 |
| 20260906072506 | 74 | 221 | 2.0 | 3.0 | 0.00 | 0.20 | 0.00 | 76 | 1016.7 |
| 20260906072014 | 74 | 222 | 2.0 | 3.0 | 0.00 | 0.20 | 0.00 | 76 | 1016.8 |
| 20260906071535 | 74 | 217 | 2.0 | 3.0 | 0.00 | 0.20 | 0.00 | 76 | 1016.9 |
| 20260906071012 | 74 | 222 | 2.0 | 3.0 | 0.00 | 0.20 | 0.00 | 76 | 1017.0 |
| 20260906070521 | 74 | 225 | 2.0 | 3.0 | 0.00 | 0.20 | 0.00 | 76 | 1017.0 |
| 20260906070035 | 74 | 218 | 2.0 | 3.0 | 0.00 | 0.20 | 0.00 | 75 | 1017.0 |
| 20260906065507 | 74 | 226 | 2.0 | 3.0 | 0.00 | 0.20 | 0.00 | 75 | 1017.0 |
| 20260906065004 | 74 | 227 | 2.0 | 3.0 | 0.00 | 0.20 | 0.00 | 75 | 1017.0 |
| 20260906064508 | 74 | 230 | 2.0 | 3.0 | 0.00 | 0.20 | 0.00 | 75 | 1017.0 |
| 20260906064004 | 74 | 229 | 2.0 | 3.0 | 0.00 | 0.20 | 0.00 | 75 | 1017.0 |
| 20260906063504 | 74 | 222 | 2.0 | 3.0 | 0.00 | 0.20 | 0.00 | 75 | 1017.1 |
| 20260906063016 | 75 | 228 | 2.0 | 3.0 | 0.00 | 0.20 | 0.00 | 74 | 1017.1 |
| 20260906062505 | 75 | 219 | 2.0 | 3.0 | 0.00 | 0.20 | 0.00 | 75 | 1017.1 |
| 20260906062007 | 75 | 218 | 2.0 | 3.0 | 0.00 | 0.20 | 0.00 | 74 | 1017.1 |
| 20260906061536 | 75 | 225 | 2.0 | 3.0 | 0.00 | 0.20 | 0.00 | 73 | 1017.1 |
| 20260906061012 | 75 | 228 | 2.0 | 3.0 | 0.00 | 0.20 | 0.00 | 73 | 1017.0 |
| 20260906060512 | 75 | 226 | 2.0 | 3.0 | 0.00 | 0.20 | 0.00 | 73 | 1017.0 |
| 20260906060035 | 75 | 216 | 2.0 | 3.0 | 0.00 | 0.20 | 0.00 | 73 | 1017.0 |
| 20260906055517 | 75 | 221 | 2.0 | 4.0 | 0.00 | 0.20 | 0.00 | 73 | 1017.0 |
| 20260906055016 | 75 | 225 | 2.0 | 4.0 | 0.00 | 0.20 | 0.00 | 72 | 1016.9 |
| 20260906054536 | 75 | 234 | 2.0 | 3.0 | 0.00 | 0.20 | 0.00 | 73 | 1017.0 |
| 20260906054002 | 75 | 224 | 2.0 | 3.0 | 0.00 | 0.20 | 0.00 | 73 | 1017.0 |
| 20260906053502 | 74 | 219 | 2.0 | 3.0 | 0.00 | 0.20 | 0.00 | 73 | 1017.0 |
| 20260906053012 | 74 | 223 | 2.0 | 3.0 | 0.00 | 0.20 | 0.00 | 75 | 1016.9 |
| 20260906052506 | 75 | 225 | 2.0 | 3.0 | 0.00 | 0.20 | 0.00 | 75 | 1016.9 |
| 20260906052011 | 75 | 230 | 2.0 | 3.0 | 0.00 | 0.20 | 0.00 | 75 | 1016.9 |
| 20260906051550 | 75 | 222 | 3.0 | 3.0 | 0.00 | 0.20 | 0.00 | 75 | 1016.8 |
| 20260906051011 | 75 | 219 | 2.0 | 3.0 | 0.00 | 0.20 | 0.00 | 75 | 1016.7 |
| 20260906050519 | 75 | 223 | 2.0 | 3.0 | 0.00 | 0.20 | 0.00 | 75 | 1016.7 |
| 20260906050026 | 75 | 226 | 2.0 | 3.0 | 0.00 | 0.20 | 0.00 | 75 | 1016.6 |
| 20260906045512 | 75 | 227 | 2.0 | 3.0 | 0.00 | 0.20 | 0.20 | 75 | 1016.6 |
| 20260906045017 | 75 | 227 | 2.0 | 3.0 | 0.00 | 0.20 | 0.20 | 75 | 1016.6 |
| 20260906044534 | 75 | 235 | 2.0 | 3.0 | 0.00 | 0.20 | 0.20 | 75 | 1016.6 |
| 20260906044018 | 75 | 223 | 2.0 | 3.0 | 0.00 | 0.20 | 0.20 | 75 | 1016.6 |
| 20260906043515 | 75 | 224 | 2.0 | 3.0 | 0.00 | 0.20 | 0.20 | 76 | 1016.6 |
| 20260906043033 | 75 | 221 | 2.0 | 3.0 | 0.00 | 0.20 | 0.20 | 76 | 1016.6 |
| 20260906042506 | 75 | 238 | 2.0 | 3.0 | 0.00 | 0.20 | 0.20 | 76 | 1016.6 |
| 20260906042014 | 75 | 242 | 1.0 | 3.0 | 0.00 | 0.20 | 0.20 | 77 | 1016.5 |
| 20260906041515 | 74 | 233 | 2.0 | 3.0 | 0.00 | 0.20 | 0.20 | 78 | 1016.5 |
| 20260906041011 | 74 | 240 | 2.0 | 4.0 | 0.00 | 0.20 | 0.20 | 78 | 1016.5 |
| 20260906040507 | 74 | 235 | 2.0 | 4.0 | 0.00 | 0.20 | 0.20 | 79 | 1016.4 |
| 20260906040031 | 74 | 229 | 2.0 | 4.0 | 0.00 | 0.20 | 0.20 | 80 | 1016.4 |
| 20260906035509 | 74 | 225 | 2.0 | 4.0 | 0.00 | 0.20 | 0.20 | 80 | 1016.7 |
| 20260906035014 | 74 | 235 | 2.0 | 4.0 | 0.00 | 0.20 | 0.20 | 81 | 1016.8 |
| 20260906034532 | 74 | 225 | 3.0 | 4.0 | 0.00 | 0.20 | 0.20 | 81 | 1016.9 |
| 20260906034017 | 74 | 232 | 3.0 | 4.0 | 0.00 | 0.20 | 0.20 | 81 | 1016.9 |
| 20260906033514 | 74 | 223 | 3.0 | 4.0 | 0.00 | 0.20 | 0.20 | 81 | 1017.0 |
| 20260906033031 | 73 | 233 | 3.0 | 4.0 | 0.00 | 0.20 | 0.20 | 82 | 1017.1 |
| 20260906032516 | 73 | 224 | 2.0 | 4.0 | 0.00 | 0.20 | 0.20 | 82 | 1017.1 |
| 20260906032016 | 73 | 224 | 3.0 | 4.0 | 0.00 | 0.20 | 0.20 | 82 | 1017.0 |
| 20260906031515 | 73 | 223 | 2.0 | 4.0 | 0.00 | 0.20 | 0.20 | 82 | 1017.0 |
| 20260906031007 | 73 | 223 | 2.0 | 4.0 | 0.00 | 0.20 | 0.20 | 82 | 1017.0 |
| 20260906030506 | 73 | 222 | 2.0 | 3.0 | 0.00 | 0.20 | 0.20 | 82 | 1017.0 |
| 20260906030016 | 73 | 230 | 3.0 | 4.0 | 0.00 | 0.20 | 0.20 | 82 | 1016.9 |
| 20260906025502 | 73 | 236 | 2.0 | 4.0 | 0.00 | 0.20 | 0.20 | 82 | 1016.8 |
| 20260906025009 | 73 | 229 | 3.0 | 4.0 | 0.00 | 0.20 | 0.20 | 82 | 1016.7 |
| 20260906024504 | 73 | 220 | 3.0 | 4.0 | 0.00 | 0.20 | 0.20 | 82 | 1016.8 |
| 20260906024003 | 73 | 229 | 3.0 | 3.0 | 0.00 | 0.20 | 0.20 | 82 | 1016.8 |
| 20260906023506 | 73 | 223 | 3.0 | 3.0 | 0.00 | 0.20 | 0.20 | 82 | 1016.7 |
| 20260906023006 | 74 | 221 | 2.0 | 3.0 | 0.00 | 0.20 | 0.20 | 81 | 1016.7 |
| 20260906022503 | 74 | 226 | 3.0 | 4.0 | 0.00 | 0.20 | 0.20 | 81 | 1016.6 |
| 20260906022003 | 74 | 225 | 3.0 | 4.0 | 0.00 | 0.20 | 0.20 | 81 | 1016.5 |
| 20260906021510 | 74 | 227 | 3.0 | 3.0 | 0.00 | 0.20 | 0.20 | 80 | 1016.3 |
| 20260906021004 | 74 | 228 | 3.0 | 4.0 | 0.00 | 0.20 | 0.20 | 79 | 1016.4 |
| 20260906020506 | 74 | 223 | 3.0 | 4.0 | 0.00 | 0.20 | 0.20 | 80 | 1016.4 |
| 20260906020018 | 74 | 229 | 3.0 | 4.0 | 0.00 | 0.20 | 0.20 | 80 | 1016.3 |
| 20260906015508 | 75 | 225 | 3.0 | 4.0 | 0.00 | 0.20 | 0.20 | 81 | 1016.3 |
| 20260906015013 | 75 | 222 | 3.0 | 4.0 | 0.00 | 0.20 | 0.20 | 80 | 1016.2 |
| 20260906014504 | 75 | 228 | 3.0 | 3.0 | 0.00 | 0.20 | 0.20 | 79 | 1016.1 |
| 20260906014003 | 75 | 223 | 2.0 | 3.0 | 0.00 | 0.20 | 0.20 | 78 | 1016.0 |
| 20260906013504 | 75 | 231 | 3.0 | 3.0 | 0.00 | 0.20 | 0.20 | 77 | 1016.0 |
| 20260906013005 | 75 | 231 | 2.0 | 2.0 | 0.00 | 0.20 | 0.20 | 76 | 1015.8 |
| 20260906012503 | 76 | 230 | 2.0 | 3.0 | 0.00 | 0.20 | 0.20 | 78 | 1015.8 |
| 20260906012016 | 76 | 236 | 2.0 | 3.0 | 0.00 | 0.20 | 0.20 | 80 | 1015.7 |
| 20260906011506 | 77 | 226 | 2.0 | 5.0 | 0.00 | 0.20 | 0.20 | 79 | 1015.6 |
| 20260906011016 | 77 | 227 | 3.0 | 5.0 | 0.00 | 0.20 | 0.20 | 77 | 1015.5 |
| 20260906010504 | 78 | 227 | 3.0 | 3.0 | 0.00 | 0.20 | 0.20 | 75 | 1015.5 |
| 20260906010014 | 79 | 230 | 2.0 | 4.0 | 0.00 | 0.20 | 0.20 | 74 | 1015.5 |
| 20260906005508 | 79 | 227 | 3.0 | 4.0 | 0.00 | 0.20 | 0.20 | 75 | 1015.5 |
| 20260906005006 | 80 | 227 | 3.0 | 3.0 | 0.00 | 0.20 | 0.20 | 74 | 1015.5 |
| 20260906004518 | 81 | 229 | 2.0 | 3.0 | 0.00 | 0.20 | 0.20 | 72 | 1015.5 |
| 20260906004021 | 82 | 229 | 2.0 | 3.0 | 0.00 | 0.20 | 0.20 | 69 | 1015.5 |
| 20260906003510 | 83 | 229 | 2.0 | 2.0 | 0.00 | 0.20 | 0.20 | 66 | 1015.5 |
| 20260906003005 | 84 | 227 | 2.0 | 2.0 | 0.00 | 0.20 | 0.20 | 63 | 1015.6 |
| 20260906002503 | 85 | 218 | 2.0 | 2.0 | 0.00 | 0.20 | 0.20 | 60 | 1015.5 |
| 20260906002011 | 86 | 218 | 1.0 | 2.0 | 0.00 | 0.20 | 0.20 | 61 | 1015.5 |
| 20260906001506 | 87 | 218 | 1.0 | 1.0 | 0.00 | 0.20 | 0.20 | 63 | 1015.6 |
| 20260906001005 | 88 | 218 | 1.0 | 2.0 | 0.00 | 0.20 | 0.20 | 59 | 1015.6 |
| 20260906000503 | 89 | 218 | 0.0 | 2.0 | 0.00 | 0.20 | 0.20 | 58 | 1015.6 |
| 20260906000031 | 90 | 218 | 0.0 | 1.0 | 0.00 | 0.20 | 0.20 | 59 | 1015.7 |
| 20260905235518 | 91 | 218 | 0.0 | 2.0 | 0.00 | 0.20 | 0.20 | 59 | 1015.7 |
| 20260905235019 | 91 | 218 | 0.0 | 2.0 | 0.00 | 0.20 | 0.20 | 56 | 1015.6 |
| 20260905234535 | 91 | 218 | 0.0 | 2.0 | 0.00 | 0.20 | 0.20 | 57 | 1015.6 |
| 20260905234011 | 92 | 218 | 0.0 | 2.0 | 0.00 | 0.20 | 0.20 | 61 | 1015.6 |
| 20260905233512 | 92 | 218 | 0.0 | 2.0 | 0.00 | 0.20 | 0.20 | 61 | 1015.6 |
| 20260905233023 | 91 | 218 | 0.0 | 2.0 | 0.00 | 0.20 | 0.20 | 59 | 1015.7 |
| 20260905232511 | 91 | 161 | 0.0 | 1.0 | 0.00 | 0.20 | 0.20 | 59 | 1015.7 |
| 20260905232011 | 91 | 138 | 0.0 | 1.0 | 0.00 | 0.20 | 0.20 | 58 | 1015.7 |